Millinocket, ME

7:48 PM EDT on April 27, 2017 (GMT -0400)
Millinocket Municipal

Weather History for KMLT - September, 2013

Change the Weather History Date:

Monday, September 9, 2013

  Actual Average Record
Temperature  
Mean Temperature 56 °F 60 °F  
Max Temperature 69 °F 71 °F 95 °F (2002)
Min Temperature 42 °F 50 °F 30 °F (1937)
Degree Days  
Heating Degree Days 9 6  
Month to date heating degree days 49 44  
Since 1 July heating degree days 94 123  
Cooling Degree Days 0 1  
Month to date cooling degree days 13 11  
Year to date cooling degree days 365 262  
Growing Degree Days 6 (Base 50)    
Moisture  
Dew Point 41 °F    
Average Humidity 63    
Maximum Humidity 89    
Minimum Humidity 37    
Precipitation  
Precipitation 0.00 in 0.11 in 1.28 in (2004)
Month to date precipitation 2.00 0.95  
Year to date precipitation 27.49 27.88  
Snow  
Snow 0.00 in - - ()
Month to date snowfall 0.0  
Snow Depth 0.00 in    
Sea Level Pressure  
Sea Level Pressure 30.08 in    
Wind  
Wind Speed 5 mph (WNW)    
Max Wind Speed 13 mph    
Max Gust Speed 20 mph    
Visibility 10 miles    
Events      
T = Trace of Precipitation, MM = Missing Value Source: NWS Daily Summary

Daily Weather History Graph

Daily Weather History Graph

Search for Another Location

Airport or City:

Trip Planner

Search our weather history database for the weather conditions in past years. The results will help you decide how hot, cold, wet, or windy it might be!

Date:

Astronomy

Sep. 09, 2013 Rise Set
Actual Time 6:06 AM EDT 6:57 PM EDT
Civil Twilight 5:35 AM EDT 7:27 PM EDT
Nautical Twilight 4:59 AM EDT 8:02 PM EDT
Astronomical Twilight 4:22 AM EDT 8:40 PM EDT
Moon 10:39 AM EDT (9/9) 8:54 PM EDT (9/9)
Length of Visible Light 13h 51m
Length of Day
12h 51m
Waxing Crescent, 19% of the Moon is Illuminated
Sep 9
Waxing Crescent
Sep 12
First Quarter
Sep 19
Full
Sep 26
Last Quarter
Oct 4
New

Hourly Weather History & Observations

Time (EDT) Temp. Windchill Dew Point Humidity Pressure Visibility Wind Dir Wind Speed Gust Speed Precip Events Conditions
12:53 AM 48.9 °F - 37.9 °F 66% 30.02 in 10.0 mi WNW 6.9 mph - N/A   Clear
1:53 AM 46.9 °F - 37.9 °F 71% 30.04 in 10.0 mi West 5.8 mph - N/A   Clear
2:53 AM 46.0 °F 43.9 °F 37.9 °F 73% 30.07 in 10.0 mi WNW 4.6 mph - N/A   Clear
3:53 AM 46.0 °F - 39.0 °F 76% 30.07 in 10.0 mi Calm Calm - N/A   Clear
4:53 AM 46.9 °F - 39.0 °F 74% 30.09 in 10.0 mi NW 4.6 mph - N/A   Clear
5:53 AM 43.0 °F - 39.0 °F 86% 30.12 in 10.0 mi Calm Calm - N/A   Clear
6:53 AM 46.0 °F 43.9 °F 39.9 °F 79% 30.14 in 10.0 mi WNW 4.6 mph - N/A   Clear
7:53 AM 48.9 °F - 39.0 °F 69% 30.13 in 10.0 mi NNW 8.1 mph - N/A   Clear
8:53 AM 52.0 °F - 37.9 °F 59% 30.14 in 10.0 mi West 9.2 mph - N/A   Clear
9:53 AM 57.0 °F - 37.9 °F 49% 30.14 in 10.0 mi NW 11.5 mph 19.6 mph N/A   Clear
10:53 AM 60.1 °F - 39.0 °F 46% 30.13 in 10.0 mi West 9.2 mph - N/A   Clear
11:53 AM 62.1 °F - 39.0 °F 43% 30.12 in 10.0 mi West 8.1 mph - N/A   Clear
12:53 PM 64.9 °F - 39.0 °F 39% 30.09 in 10.0 mi West 6.9 mph - N/A   Clear
1:53 PM 66.9 °F - 39.0 °F 36% 30.08 in 10.0 mi West 9.2 mph - N/A   Clear
2:53 PM 68.0 °F - 43.0 °F 40% 30.06 in 10.0 mi Variable 3.5 mph - N/A   Clear
3:53 PM 68.0 °F - 43.0 °F 40% 30.06 in 10.0 mi Variable 6.9 mph - N/A   Clear
4:53 PM 66.9 °F - 43.0 °F 42% 30.04 in 10.0 mi Variable 5.8 mph - N/A   Clear
5:53 PM 64.9 °F - 44.1 °F 47% 30.05 in 10.0 mi Variable 4.6 mph - N/A   Clear
6:53 PM 61.0 °F - 46.0 °F 58% 30.05 in 10.0 mi Calm Calm - N/A   Clear
7:53 PM 57.9 °F - 46.0 °F 65% 30.07 in 10.0 mi Calm Calm - N/A   Clear
8:53 PM 55.9 °F - 46.0 °F 69% 30.08 in 10.0 mi Calm Calm - N/A   Clear
9:53 PM 55.9 °F - 46.9 °F 72% 30.08 in 10.0 mi Calm Calm - N/A   Clear
10:53 PM 57.0 °F - 48.0 °F 72% 30.08 in 10.0 mi Variable 3.5 mph - N/A   Clear
11:53 PM 55.9 °F - 48.0 °F 75% 30.07 in 10.0 mi Calm Calm - N/A   Clear